Regional Weather Roundup
Issued by NWS

Home | Current Version | Previous Version | Graphics & Text | Print | Product List | Glossary On
Versions: 1 2 3 4 5 6 7 8 9 10 11 12 13 14 15 16 17 18 19 20 21 22 23 24 25 26 27 28 29 30 31 32 33 34 35 36 37 38 39 40 41 42 43 44 45 46 47 48 49 50
455
ASUS43 KIND 181209
RWRIN

WEATHER ROUNDUP FOR INDIANA
NATIONAL WEATHER SERVICE INDIANAPOLIS IN
700 AM EST WED JAN 18 2017

NOTE: "FAIR" INDICATES FEW OR NO CLOUDS BELOW 12,000 FEET WITH NO
SIGNIFICANT WEATHER AND/OR OBSTRUCTIONS TO VISIBILITY.

* - STATION DOES NOT REPORT WEATHER SUCH AS PRECIPITATION OR FOG.

+ - STATION NOT QUALITY CONTROLLED BY THE NATIONAL WEATHER SERVICE.
    USE DATA WITH CAUTION...ESPECIALLY DEWPOINT AND RELATIVE
    HUMIDITY OBSERVATIONS.

INZ001>003-010>013-019-020-181300-
NORTHWEST INDIANA

CITY           SKY/WX    TMP DP  RH WIND       PRES   REMARKS
GARY /AIRPORT/ CLOUDY    36  34  93 W12G23    30.12R FOG
KNOX *+        CLOUDY    32  27  80 W9        30.10S WCI  24
LA PORTE +     CLOUDY    33  33  99 W9        30.10R FOG     WCI  25
6HR MIN TEMP:  33; 6HR MAX TEMP:  34;

MICHIGAN CITY+ CLOUDY    34  34 100 W6        30.10S FOG     WCI  29
MONTICELLO +   CLOUDY    33  32  96 W9G16     30.13R FOG     WCI  25
6HR MIN TEMP:  33; 6HR MAX TEMP:  35;

RENSSELAER +   CLOUDY    34  34 100 W10       30.13R FOG     WCI  26
VALPARAISO     CLOUDY    35  34  96 W9        30.11R FOG     WCI  28
6HR MIN TEMP:  35; 6HR MAX TEMP:  36;


$$

LMZ046-743>745-181300-
SOUTHERN LAKE MICHIGAN

STATION/POSITION TIME  TEMP    WIND        PRES    WAVE
                       AIR SEA DIR/SP/G            HT
                 (UTC) (F)     (DEG/KT/KT) (MB)    (FT)
BURNS HARBOR     1140   34     260/ 13/ 15 1020.0R

$$

INZ004-005-014>016-021>024-181300-
NORTH CENTRAL INDIANA

CITY           SKY/WX    TMP DP  RH WIND       PRES   REMARKS
ELKHART        DRIZZLE   34  32  93 W6        30.08  WCI  29
GOSHEN         CLOUDY    34  31  88 W13       30.08R FOG     WCI  25
6HR MIN TEMP:  34; 6HR MAX TEMP:  35;

LOGANSPORT +   CLOUDY    32  32 100 W12G18    30.13S FOG     WCI  23
PERU/GRISSOM   CLOUDY    34  34 100 W12       30.10S WCI  25
6HR MIN TEMP:  34; 6HR MAX TEMP:  35; 6HR PCP: TRACE;

ROCHESTER +    CLOUDY    36  36 100 W8        30.11S FOG
SOUTH BEND     CLOUDY    33  33 100 W9        30.09R FOG     WCI  25
6HR MIN TEMP:  33; 6HR MAX TEMP:  34;

WARSAW +       CLOUDY    32  30  93 W13       30.09S FOG     WCI  22

$$

INZ006>009-017-018-025>027-181300-
NORTHEAST INDIANA

CITY           SKY/WX    TMP DP  RH WIND       PRES   REMARKS
ANGOLA *+      CLOUDY    34  34 100 W8        30.05R WCI  27
AUBURN +       CLOUDY    34  32  93 W8        30.08R FOG     WCI  27
FORT WAYNE     DRIZZLE   35  32  88 W16       30.10R FOG     WCI  25
6HR MIN TEMP:  35; 6HR MAX TEMP:  36; 6HR PCP: TRACE;

HUNTINGTON +   CLOUDY    34  33  95 W10G18    30.11R WCI  26
6HR MIN TEMP:  34; 6HR MAX TEMP:  35;

KENDALLVILLE + CLOUDY    33  33 100 W10       30.07R FOG     WCI  25

$$

INZ028-029-035-036-043>045-051>053-181300-
WEST CENTRAL INDIANA

CITY           SKY/WX    TMP DP  RH WIND       PRES   REMARKS
CRAWFORDSVL +  CLOUDY    33  33 100 W9        30.15R WCI  26
6HR MIN TEMP:  33; 6HR MAX TEMP:  34;

GREENCASTLE +  CLOUDY    36  34  93 W6        30.16R
LAFAYETTE      CLOUDY    34  33  96 W12       30.15R WCI  25
6HR MIN TEMP:  34; 6HR MAX TEMP:  36;

TERRE HAUTE    CLOUDY    38  34  85 NW7       30.18R
6HR MIN TEMP:  38; 6HR MAX TEMP:  38;


$$

INZ030>032-037>040-046>048-054>057-064-065-181300-
CENTRAL INDIANA

CITY           SKY/WX    TMP DP  RH WIND       PRES   REMARKS
CP ATTERBURY + CLOUDY    36  34  93 W12G18    30.17R
COLUMBUS       CLOUDY    37  37 100 W5        30.17R FOG
FISHERS *+     CLOUDY    34  34 100 W7        30.14  WCI  28
FRANKFORT +    CLOUDY    37  35  92 NW15      30.15S
6HR MIN TEMP:  37; 6HR MAX TEMP:  38;

GREENWOOD *+   CLOUDY    38  36  92 W7G20     30.15S
6HR MIN TEMP:  37; 6HR MAX TEMP:  39;

INDIANAPOLIS   DRIZZLE   36  34  92 W12       30.15R
6HR MIN TEMP:  36; 6HR MAX TEMP:  37; 6HR PCP: TRACE;

-EAGLE CREEK   CLOUDY    37  32  82 W14       30.14R
6HR MIN TEMP:  36; 6HR MAX TEMP:  37;

KOKOMO +       CLOUDY    34  33  96 W14       30.14R WCI  25
6HR MIN TEMP:  34; 6HR MAX TEMP:  36; 6HR PCP: TRACE;

MARION +       CLOUDY    34  34 100 W13       30.13R WCI  25
MT COMFORT *+  CLOUDY    36  34  93 W15       30.14R
SHELBYVILLE    CLOUDY    38  34  85 W10       30.14R
6HR MIN TEMP:  37; 6HR MAX TEMP:  40;

ZIONSVILLE +   CLOUDY    34  33  95 W13G18    30.14S WCI  25
6HR MIN TEMP:  34; 6HR MAX TEMP:  35;


$$

INZ033-034-041-042-049-050-058-059-181300-
EAST CENTRAL INDIANA

CITY           SKY/WX    TMP DP  RH WIND       PRES   REMARKS
MUNCIE         CLOUDY    37  34  89 W12       30.12R
6HR MIN TEMP:  36; 6HR MAX TEMP:  38; 6HR PCP:  0.01;


$$

INZ060-061-067>069-081>083-085>088-181300-
SOUTHWEST INDIANA

CITY           SKY/WX    TMP DP  RH WIND       PRES   REMARKS
EVANSVILLE     CLOUDY    40  35  83 NW5       30.22R
6HR MIN TEMP:  40; 6HR MAX TEMP:  44; 6HR PCP: TRACE;

HUNTINGBURG *+ CLOUDY    39  37  92 NW7       30.20R
6HR MIN TEMP:  39; 6HR MAX TEMP:  42;

WASHINGTON +   CLOUDY    38  35  88 NW9       30.20R
6HR MIN TEMP:  38; 6HR MAX TEMP:  40;


$$

INZ062-063-066-070>080-084-089>092-181300-
SOUTH CENTRAL AND SOUTHEAST INDIANA

CITY           SKY/WX    TMP DP  RH WIND       PRES   REMARKS
BLOOMINGTON    CLOUDY    37  34  89 W6        30.16R
6HR MIN TEMP:  37; 6HR MAX TEMP:  39; 6HR PCP: TRACE;

MADISON *+     CLOUDY    37  36  93 W6        30.18R
NORTH VERNON + CLOUDY   N/A N/A N/A W5        30.16S
SEYMOUR +      CLOUDY    39  37  93 NW6       30.17R FOG

$$





USA.gov is the U.S. government's official web portal to all federal, state and local government web resources and services.